Find Starlink 34056

NORAD ID: 63841 Int'l Des: 2025-093 Owner: SPXS Country: US Constellation: starlink operational
LEOCIRCULAR

当前视图

正在加载3D地球...

About Starlink 34056

Starlink 34056 (NORAD 63841) is a starlink constellation satellite (v2 mini) launched May 7, 2025 by SPXS of US. It operates in LEO, CIRCULAR orbit with a mass of 575.00 kg.

即将过境

Passes for default location (London). Set your location on the main map for personalized predictions.

高度历史

Loading altitude history...

两行轨道根数

1 63841U 25093F 26262.78222080 .00011389 00000-0 42229-3 0 9992
2 63841 43.0028 61.9830 0002673 287.4142 72.6417 15.27614517 77431
Epoch: Sep 19, 2026 • Age: 28 hours

当前状态

高度 486.0 km
远地点 / 近地点 N/A
速度 7.62 km/s
星下点 -15.44°S, 82.2°W
发射日期 May 7, 2025
运行时间 1.3 years
类型 internet

技术详情

分类 Payload
质量 575.00 kg
干质量 530.00 kg
长度 0.30 m
跨度 29.00 m
形状 ? Box + pan
制造商 SPXS
平台类型 Starlink V2MO
阶段状态 In Orbit
所有者/国家 SPXS/US

Most Searched